This is the latest recevied weather packets stored in our database for station/object N9BSW. If no packets are shown the sender has not sent any weather packets the latest 10 day(s).
| Time | Temp. | Humidity | Pressure | Rain* | Wind** | Luminosity | Snow |
|---|---|---|---|---|---|---|---|
| 1777476918 | 15.56° C | 78% | 1012.1 hPa | 0 mm | - | 141 W/m² | - |
| 1777476617 | 15.56° C | 78% | 1012 hPa | 0 mm | - | 307 W/m² | - |
| 1777476313 | 16.11° C | 77% | 1012 hPa | 0 mm | - | 218 W/m² | - |
| 1777476009 | 16.11° C | 77% | 1012 hPa | 0 mm | - | 346 W/m² | - |
| 1777475704 | 15.56° C | 79% | 1011.9 hPa | 0 mm | - | 752 W/m² | - |
| 1777475401 | 15° C | 83% | 1012 hPa | 0 mm | - | 738 W/m² | - |
| 1777475096 | 15° C | 83% | 1011.9 hPa | 0 mm | - | 280 W/m² | - |
| 1777474793 | 15° C | 84% | 1012.1 hPa | 0 mm | - | 360 W/m² | - |
| 1777474489 | 15° C | 85% | 1012.2 hPa | 0 mm | - | 428 W/m² | - |
| 1777474186 | 14.44° C | 89% | 1011.9 hPa | 0 mm | - | 662 W/m² | - |
| 1777473884 | 13.89° C | 90% | 1012 hPa | 0 mm | - | 278 W/m² | - |
| 1777473581 | 13.33° C | 89% | 1011.8 hPa | 0 mm | - | 221 W/m² | - |
| 1777473277 | 13.89° C | 88% | 1011.9 hPa | 0 mm | - | 104 W/m² | - |
| 1777472972 | 13.89° C | 89% | 1011.9 hPa | 0 mm | - | 125 W/m² | - |
| 1777472669 | 13.89° C | 90% | 1011.9 hPa | 0 mm | - | 257 W/m² | - |
| 1777472366 | 13.89° C | 91% | 1011.9 hPa | 0 mm | - | 303 W/m² | - |
| 1777472064 | 13.89° C | 91% | 1012 hPa | 0 mm | - | 340 W/m² | - |
| 1777471759 | 13.33° C | 92% | 1011.9 hPa | 0 mm | - | 190 W/m² | - |
| 1777471455 | 13.33° C | 92% | 1011.8 hPa | 0 mm | - | 163 W/m² | - |
| 1777471152 | 13.33° C | 92% | 1012 hPa | 0 mm | - | 116 W/m² | - |
| 1777470849 | 13.33° C | 93% | 1011.9 hPa | 0 mm | - | 135 W/m² | - |
| 1777470546 | 13.33° C | 94% | 1012.1 hPa | 0 mm | - | 154 W/m² | - |
| 1777470242 | 12.78° C | 94% | 1012.1 hPa | 0 mm | - | 103 W/m² | - |
| 1777469938 | 12.78° C | 94% | 1012 hPa | 0 mm | - | 97 W/m² | - |
| 1777469634 | 12.78° C | 94% | 1012 hPa | 0 mm | - | 112 W/m² | - |
* Rain latest hour (hover to see other rain measurements)
** Current wind speed in m/s (hover to see current wind gust speed)